This demonstration page uses our WeatherBlox Daily Observations layout. Learn more.

Left ArrowRight Arrow

47.50024, -111.30081

Hourly Observations for March 10, 2017

Temp ( °F °C ) Dew Point ( °F °C ) Humidity (%) Winds ( mph kmh ) Pressure ( in mb ) Visibility ( mi km ) Precip ( " mm )
12:53 am 00:53 Cloudy with Light Snow 11 -11.7 6 -14.4 81 81 N 3 6 30.39 1029 5 8 0.01 0.25
1:53 am 01:53 Cloudy with Light Snow 11 -11.7 7 -13.9 84 84 NNE 3 6 30.37 1028 8 13 0.00 0.03
2:19 am 02:19 Cloudy 11 -11.7 8 -13.3 88 88 NNW 3 6 30.48 1032 8 13 0.00 0.03
2:53 am 02:53 Cloudy with Light Snow 11 -11.7 8 -13.3 88 88 NW 3 6 30.35 1028 6 10 0.00 0.03
3:53 am 03:53 Cloudy 11 -11.7 8 -13.3 88 88 W 6 9 30.34 1028 10 16 0.00 0.03
4:53 am 04:53 Cloudy 12 -11.1 7 -13.9 80 80 WSW 7 11 30.32 1027 10 16 0.00 0.00
5:53 am 05:53 Mostly Cloudy 11 -11.7 7 -13.9 84 84 WSW 5 7 30.32 1027 10 16 0.00 0.00
6:26 am 06:26 Partly Cloudy 10 -12 7 -14 85 85 WSW 5 7 30.39 1029 10 16 0.00 0.00
6:53 am 06:53 Mostly Sunny 9 -12.8 5 -15 84 84 WSW 5 7 30.32 1027 10 16 0.00 0.00
7:17 am 07:17 Mostly Cloudy 10 -12.2 6 -14.4 84 84 WSW 6 9 30.42 1030 10 16 0.00 0.00
7:53 am 07:53 Cloudy 12 -11.1 8 -13.3 84 84 Calm 30.30 1026 10 16 0.00 0.00
8:42 am 08:42 Partly Cloudy 12 -11 9 -13 85 85 Calm 30.36 1028 9 14 0.00 0.00
8:53 am 08:53 Partly Cloudy 13 -10.6 8 -13.3 81 81 Calm 30.30 1026 8 13 0.00 0.00
9:53 am 09:53 Sunny 16 -8.9 8 -13.3 71 71 Calm 30.27 1025 10 16 0.00 0.00
10:53 am 10:53 Sunny 17 -8.3 8 -13.3 68 68 NNW 6 9 30.27 1025 10 16 0.00 0.00
11:53 am 11:53 Sunny 19 -7.2 9 -12.8 65 65 VRB 3 6 30.27 1025 10 16 0.00 0.00
12:53 pm 12:53 Sunny 21 -6.1 10 -12.2 62 62 N 3 6 30.25 1025 10 16 0.00 0.00
1:53 pm 13:53 Sunny 22 -5.6 12 -11.1 66 66 VRB 3 6 30.23 1024 10 16 0.00 0.00
2:53 pm 14:53 Sunny 22 -5.6 13 -10.6 68 68 Calm 30.23 1024 10 16 0.00 0.00
3:53 pm 15:53 Sunny 24 -4.4 14 -10 65 65 E 8 13 30.22 1023 10 16 0.00 0.00
4:53 pm 16:53 Sunny 21 -6.1 13 -10.6 71 71 ENE 12 19 30.24 1024 10 16 0.00 0.00
5:53 pm 17:53 Sunny 18 -7.8 12 -11.1 77 77 NE 14 22 30.30 1026 10 16 0.00 0.00
6:53 pm 18:53 Clear 13 -10.6 9 -12.8 84 84 NE 8 13 30.36 1028 10 16 0.00 0.00
7:53 pm 19:53 Clear 12 -11.1 8 -13.3 84 84 NNE 10 17 30.41 1030 10 16 0.00 0.00
8:13 pm 20:13 Mostly Cloudy 13 -10.6 9 -12.8 84 84 NE 13 20 30.45 1031 10 16 0.00 0.00
8:53 pm 20:53 Cloudy 14 -10 10 -12.2 84 84 ENE 7 11 30.43 1031 8 13 0.00 0.00
9:01 pm 21:01 Cloudy 14 -10 10 -12.2 84 84 NE 9 15 30.48 1032 9 14 0.00 0.00
9:24 pm 21:24 Cloudy 13 -10.6 10 -12.2 88 88 NNE 8 13 30.50 1033 9 14 0.00 0.00
9:53 pm 21:53 Cloudy 13 -10.6 9 -12.8 84 84 ENE 7 11 30.46 1032 9 14 0.00 0.00
10:53 pm 22:53 Cloudy 12 -11.1 9 -12.8 87 87 NE 7 11 30.50 1033 10 16 0.00 0.00
11:17 pm 23:17 Cloudy 12 -11.1 8 -13.3 84 84 NE 7 11 30.56 1035 10 16 0.00 0.00
11:53 pm 23:53 Cloudy 12 -11.1 9 -12.8 87 87 ENE 3 6 30.51 1033 10 16 0.00 0.00

Powered by AerisWeather